This is the latest recevied weather packets stored in our database for station/object DB0SWS-6. If no packets are shown the sender has not sent any weather packets the latest 10 day(s).
| Time | Temp. | Humidity | Pressure | Rain* | Wind** | Luminosity | Snow |
|---|---|---|---|---|---|---|---|
| 1777527209 | 7.78° C | 46% | 968.8 hPa | 0 mm | - | - | - |
| 1777525411 | 7.22° C | 49% | 968.5 hPa | 0 mm | - | - | - |
| 1777523609 | 7.22° C | 49% | 968.4 hPa | 0 mm | - | - | - |
| 1777521809 | 7.22° C | 49% | 968.4 hPa | 0 mm | - | - | - |
| 1777520009 | 7.22° C | 48% | 968.7 hPa | 0 mm | - | - | - |
| 1777518210 | 7.78° C | 47% | 968.5 hPa | 0 mm | - | - | - |
| 1777516410 | 8.33° C | 45% | 968.3 hPa | 0 mm | - | - | - |
| 1777514609 | 8.33° C | 44% | 968 hPa | 0 mm | - | - | - |
| 1777512810 | 8.89° C | 43% | 967.9 hPa | 0 mm | - | - | - |
| 1777511011 | 10° C | 41% | 968.1 hPa | 0 mm | - | - | - |
| 1777509210 | 10.56° C | 40% | 968 hPa | 0 mm | - | - | - |
| 1777507411 | 10.56° C | 39% | 967.7 hPa | 0 mm | - | - | - |
| 1777505610 | 11.11° C | 38% | 967.5 hPa | 0 mm | - | - | - |
| 1777503810 | 12.22° C | 36% | 967.5 hPa | 0 mm | - | - | - |
| 1777502009 | 12.22° C | 35% | 967.6 hPa | 0 mm | - | - | - |
| 1777500210 | 12.78° C | 34% | 967.4 hPa | 0 mm | - | - | - |
| 1777498410 | 13.33° C | 34% | 967.1 hPa | 0 mm | - | - | - |
| 1777496609 | 12.78° C | 34% | 966.8 hPa | 0 mm | - | - | - |
| 1777494809 | 13.33° C | 34% | 966.9 hPa | 0 mm | - | - | - |
| 1777493010 | 13.89° C | 34% | 966.6 hPa | 0 mm | - | - | - |
| 1777491210 | 13.89° C | 34% | 966.4 hPa | 0 mm | - | - | - |
| 1777489410 | 14.44° C | 34% | 966.3 hPa | 0 mm | - | - | - |
| 1777487610 | 15° C | 34% | 966 hPa | 0 mm | - | - | - |
| 1777485809 | 15.56° C | 36% | 965.7 hPa | 0 mm | - | - | - |
| 1777484009 | 17.22° C | 35% | 965.5 hPa | 0 mm | - | - | - |
* Rain latest hour (hover to see other rain measurements)
** Current wind speed in m/s (hover to see current wind gust speed)